www.pogodaiklimat.ru

Погода и климат >> Архив погоды >> Великобритания >> Виттеринг


ПОГОДА в Виттеринге

  • Прогноз погоды в Виттеринге
  • Монитор погоды в Виттеринге

АРХИВ ПОГОДЫ в Виттеринге

Время (UTC), дата Ветер
(напр.,м/с)
 
Видим.   Явления Облачность Т
(С)
Тd
(С)
f
(%)
Тe
(С)
Тes
(С)
Комфортность P
(гПа)
Po
(гПа)
Тmin
(С)
Tmax
(С)
R
(мм)
R24
(мм)
S
(см)
19 9.09 ЮВ 2 15 км н/о +12.4 +11.6 95 +11 +11 1012.2 1003.5
20 9.09 Ю 2 13 км н/о +12.2 +11.6 96 +11 +11 1012.8 1004.0
21 9.09 Ю 2 4800 м дымка н/о +10.6 +10.0 96 +9 +9 1013.2 1004.3
22 9.09 Ю 1 500 м туман н/о +10.3 +10.0 98 +11 +11 1013.9 1005.0
23 9.09 С 2 2200 м в посл. час туман н/о +10.4 +10.3 99 +9 +9 1014.5 1005.7
00 10.09 ЮЗ 1 2500 м дымка н/о +10.5 +10.5 100 +11 +11 1014.8 1005.9
01 10.09 Ю 2 500 м туман н/о +10.5 +10.4 99 +9 +9 1015.0 1006.1
02 10.09 З 2 2000 м в посл. час туман н/о +9.5 +9.5 100 +8 +8 1015.1 1006.2
03 10.09 СЗ 3 2900 м в посл. час туман н/о +8.6 +8.6 100 +6 +6 1015.5 1006.6
04 10.09 З 3 4100 м дымка н/о +8.3 +8.3 100 +5 +5 1015.8 1006.8
05 10.09 З 2 4700 м дымка н/о +7.2 +7.1 99 +5 +5 1016.2 1007.2
06 10.09 З 4 4400 м дымка н/о +9.1 +9.1 100 +6 +6 1016.8 1007.9 +7.1
07 10.09 З 3 4400 м дымка н/о +10.1 +10.0 99 +8 +8 1017.5 1008.6
08 10.09 З 2 3400 м дымка н/о +11.5 +11.3 99 +10 +10 1017.9 1009.1
09 10.09 З 3 5000 м дымка н/о +13.7 +12.9 95 +13 +13 1018.5 1009.7
10 10.09 СЗ 4 17 км н/о +15.6 +11.4 76 +15 +15 1018.6 1009.8
11 10.09 З 5 28 км н/о +16.0 +10.7 71 +15 +15 1018.7 1009.9
12 10.09 З 4 30 км н/о +18.3 +10.6 61 +18 +18 1018.3 1009.6
13 10.09 З 6 40 км н/о +16.5 +9.3 62 +16 +16 1018.6 1009.9
14 10.09 СЗ 6 40 км н/о +17.5 +10.1 62 +17 +17 1018.7 1010.0
15 10.09 З 6 35 км н/о +16.9 +9.2 60 +16 +16 1019.0 1010.3
16 10.09 З 4 35 км н/о +16.8 +8.9 60 +16 +16 1018.6 1009.9
17 10.09 З 5 40 км н/о +16.6 +8.7 60 +16 +16 1018.8 1010.1
18 10.09 З 4 35 км н/о +15.3 +8.5 64 +14 +14 1018.7 1009.9 +19.3
19 10.09 ЮЗ 2 30 км н/о +11.9 +7.5 74 +11 +11 1019.0 1010.2
20 10.09 ЮЗ 2 30 км н/о +11.9 +9.0 82 +11 +11 1018.9 1010.0
21 10.09 ЮЗ 3 30 км н/о +11.2 +9.2 87 +10 +10 1018.5 1009.7
22 10.09 ЮЗ 4 35 км н/о +13.2 +9.5 78 +11 +11 1018.6 1009.8
23 10.09 ЮЗ 3 35 км н/о +13.5 +9.1 75 +12 +12 1017.8 1009.0
00 11.09 ЮЗ 6 35 км н/о +13.8 +8.3 69 +12 +12 1017.7 1008.9
01 11.09 ЮЗ 5 35 км н/о +13.6 +8.7 72 +12 +12 1017.4 1008.6
02 11.09 ЮЗ 6 35 км н/о +13.6 +9.7 77 +11 +11 1016.9 1008.1
03 11.09 ЮЗ 7 35 км в посл. час дождь н/о +13.0 +8.9 76 +10 +10 1016.4 1007.6
04 11.09 ЮЗ 6 30 км н/о +12.9 +9.7 81 +10 +10 1015.3 1006.5
05 11.09 ЮЗ 9 27 км н/о +13.1 +10.5 84 +10 +10 1014.8 1006.0
06 11.09 ЮЗ 9 27 км н/о +13.1 +11.1 88 +10 +10 1014.2 1005.4 +10.7 0.0
07 11.09 ЮЗ 7 27 км н/о +14.5 +12.4 87 +12 +12 1014.8 1006.0
08 11.09 ЮЗ 6 17 км н/о +15.2 +13.2 88 +14 +14 1014.8 1006.1
09 11.09 ЮЗ 8 35 км н/о +17.6 +14.3 81 +17 +17 1014.9 1006.2
10 11.09 ЮЗ 8
{13}
40 км н/о +18.9 +15.0 78 +19 +19 1015.1 1006.5
11 11.09 ЮЗ 10
{15}
40 км н/о +19.6 +15.1 75 +21 +21 комфорт 1015.3 1006.7
12 11.09 ЮЗ 9
{15}
40 км н/о +21.7 +16.7 73 +26 +26 душно 1015.6 1007.1
13 11.09 З 9
{13}
45 км н/о +22.2 +14.7 62 +26 +26 душно 1015.8 1007.3
14 11.09 З 11
{14}
45 км н/о +23.6 +11.9 48 +25 +25 комфорт 1016.0 1007.5
15 11.09 З 9
{15}
50 км н/о +23.3 +12.2 50 +26 +26 жарко 1016.5 1008.0
16 11.09 З 8
{14}
45 км н/о +22.1 +10.7 48 +24 +24 комфорт 1017.2 1008.7
17 11.09 СЗ 6 35 км н/о +20.6 +11.4 56 +22 +22 комфорт 1018.1 1009.5
18 11.09 СЗ 4 35 км н/о +18.4 +10.7 61 +19 +19 1019.1 1010.4 +24.1
19 11.09 СЗ 3 30 км н/о +16.2 +9.5 64 +16 +16 1020.1 1011.4
20 11.09 З 2 17 км н/о +14.0 +9.3 73 +14 +14 1020.9 1012.1
21 11.09 ЮЗ 1 25 км н/о +12.2 +8.6 79 +13 +13 1021.4 1012.5
22 11.09 ЮЗ 3 30 км н/о +11.6 +9.3 86 +10 +10 1022.0 1013.1
23 11.09 ЮЗ 3 30 км н/о +11.4 +9.3 87 +10 +10 1022.2 1013.3
00 12.09 З 2 23 км н/о +11.3 +9.3 87 +10 +10 1022.6 1013.7
01 12.09 З 3 25 км н/о +11.0 +9.1 88 +9 +9 1023.2 1014.3
02 12.09 ЮЗ 4 23 км н/о +11.7 +9.7 88 +9 +9 1023.5 1014.6
03 12.09 ЮЗ 3 24 км н/о +10.9 +9.3 90 +9 +9 1023.6 1014.7
04 12.09 ЮЗ 5 22 км н/о +11.9 +10.3 90 +9 +9 1023.3 1014.4
05 12.09 ЮЗ 4 19 км н/о +11.9 +10.8 93 +10 +10 1023.6 1014.7
06 12.09 ЮЗ 2 15 км н/о +10.8 +10.2 96 +10 +10 1024.4 1015.4 +10.3
07 12.09 ЮЗ 5 16 км н/о +13.7 +12.0 89 +12 +12 1024.4 1015.6
08 12.09 ЮЗ 6 19 км н/о +14.7 +12.2 85 +13 +13 1024.6 1015.7
09 12.09 ЮЗ 7 25 км н/о +18.1 +13.4 74 +18 +18 1024.9 1016.1
10 12.09 ЮЗ 7 28 км н/о +19.1 +14.5 75 +20 +20 1025.1 1016.4
11 12.09 ЮЗ 9-14
{14}
30 км н/о +21.2 +13.9 63 +24 +24 комфорт 1024.5 1015.9
12 12.09 ЮЗ 9
{15}
35 км н/о +21.9 +14.8 64 +25 +25 комфорт 1024.3 1015.7
13 12.09 ЮЗ 9
{13}
40 км н/о +21.7 +15.1 66 +25 +25 комфорт 1024.2 1015.6
14 12.09 ЮЗ 10
{15}
35 км н/о +22.9 +14.9 61 +27 +27 душно 1023.7 1015.1
15 12.09 ЮЗ 11
{15}
45 км н/о +22.0 +15.4 66 +26 +26 душно 1023.7 1015.1
16 12.09 ЮЗ 10
{14}
50 км н/о +22.1 +15.1 65 +26 +26 душно 1023.5 1014.9
17 12.09 ЮЗ 9
{14}
35 км н/о +21.1 +12.9 59 +23 +23 комфорт 1023.9 1015.3
18 12.09 ЮЗ 7 30 км н/о +20.3 +12.7 62 +22 +22 комфорт 1024.5 1015.8 +23.6
19 12.09 ЮЗ 8 30 км н/о +19.2 +12.9 67 +20 +20 1025.1 1016.4
20 12.09 ЮЗ 7 29 км н/о +18.5 +13.0 70 +18 +18 1025.7 1017.0
21 12.09 ЮЗ 6 30 км н/о +17.6 +13.8 78 +17 +17 1026.4 1017.7
22 12.09 З 6 30 км н/о +17.5 +14.6 83 +17 +17 1027.0 1018.2
23 12.09 З 5 35 км н/о +17.1 +15.3 89 +16 +16 1027.6 1018.8
00 13.09 СЗ 5 60 км н/о +15.8 +12.6 81 +15 +15 1028.6 1019.8
01 13.09 З 5 45 км н/о +13.8 +11.5 86 +12 +12 1029.5 1020.6
02 13.09 З 4 40 км н/о +12.7 +10.4 86 +11 +11 1030.1 1021.2
03 13.09 СЗ 4 30 км н/о +12.1 +10.1 88 +10 +10 1031.1 1022.1
04 13.09 СЗ 4 29 км н/о +10.8 +9.3 90 +8 +8 1031.7 1022.7
05 13.09 СЗ 5 28 км н/о +10.5 +8.9 90 +8 +8 1032.3 1023.3
06 13.09 СЗ 3 29 км н/о +9.8 +8.3 90 +7 +7 1032.9 1023.9 +9.8
07 13.09 СЗ 4 30 км н/о +10.9 +8.5 85 +9 +9 1033.7 1024.7
08 13.09 СЗ 4 35 км н/о +12.8 +8.6 76 +11 +11 1034.5 1025.6
09 13.09 С 4 40 км н/о +13.8 +7.5 66 +12 +12 1035.2 1026.3
10 13.09 С 4 40 км н/о +15.3 +6.4 55 +14 +14 1035.4 1026.5
11 13.09 С 4 40 км н/о +16.7 +5.3 47 +16 +16 1035.4 1026.5
12 13.09 СВ 4 40 км н/о +17.3 +5.8 47 +17 +17 1035.6 1026.7
13 13.09 С 3 45 км н/о +18.2 +5.9 44 +18 +18 1035.2 1026.4
14 13.09 С 3 40 км н/о +18.8 +4.1 38 +19 +19 1035.1 1026.3
15 13.09 С 4 40 км н/о +18.7 +5.1 41 +19 +19 1035.3 1026.5
16 13.09 С 3 35 км н/о +18.6 +5.4 42 +19 +19 1035.0 1026.2
17 13.09 СВ 3 35 км н/о +18.0 +6.0 45 +18 +18 1035.1 1026.3
18 13.09 СВ 2 35 км н/о +16.6 +6.0 50 +17 +17 1035.0 1026.2 +19.3
19 13.09 СВ 2 35 км н/о +14.9 +6.6 58 +15 +15 1035.6 1026.7
20 13.09 СВ 2 40 км н/о +12.7 +7.2 69 +12 +12 1036.0 1027.0
21 13.09 СВ 3 35 км н/о +11.6 +7.2 74 +10 +10 1036.5 1027.4
22 13.09 В 2 29 км н/о +10.8 +7.7 81 +10 +10 1036.2 1027.1
23 13.09 ЮВ 1 30 км н/о +10.7 +7.1 78 +10 +10 1036.1 1027.0
00 14.09 Ю 2 29 км н/о +9.0 +6.0 81 +8 +8 1036.3 1027.2
01 14.09 ЮЗ 1 25 км н/о +9.4 +6.5 82 +9 +9 1035.9 1026.8
02 14.09 СЗ 2 30 км н/о +7.9 +5.6 85 +6 +6 1035.9 1026.8
03 14.09 штиль 0 29 км н/о +7.7 +6.2 90 +7 +7 1035.4 1026.3
04 14.09 штиль 0 26 км н/о +7.1 +5.6 90 +6 +6 1035.1 1025.9
05 14.09 ЮЗ 1 24 км н/о +6.2 +4.8 91 +5 +5 1034.8 1025.6

 

Местоположение метеостанции Виттеринг (Великобритания): широта 52.62 долгота -0.47 высота над уровнем моря 73 м.

В архиве по умолчанию представлена погода в Виттеринге за последнюю неделю. Архивные данные за месяц целиком и за предыдущие месяцы, начиная с января 2011 года, Вы можете получить, выбрав интересующий диапазон дат из раскрывающегося списка и нажав кнопку "Ввод!".


*Определитесь, кто Вы:
робот инопланетянин человек

Внимание! Время в таблицах - всемирное. Для получения местного времени необходимо прибавить поправку, которая равна 0 ч.

Смотрите также архив погоды в соседних городах и на ближайших метеорологических станциях:

Погода в Бедфорде (Великобритания) (44 км)
Погода в Крануэлле (Великобритания) (46 км)
Погода в Холбиче (Великобритания) (50 км)
Погода на Авиабазе Coningsby (Великобритания) (55 км)
Погода в Уоддингтоне (Великобритания) (61 км)
Погода в Черч Лоуфорд (Великобритания) (65 км)
Погода в Ноттингеме (Великобритания) (67 км)
Погода в Мархеме (Великобритания) (70 км)
Погода в Уэйнфлите (Великобритания) (71 км)
Погода в Скемптоне (Великобритания) (76 км)

Пояснения к столбцам:

Ветер - указаны скорость ветра в м/с - средняя за 10 мин, порывы в срок и между сроками (в фигурных скобках) и направление, откуда дует ветер: С - северный, СВ - северо-восточный, В - восточный, ЮВ - юго-восточный, Ю - южный, ЮЗ - юго-западный, З - западный, СЗ - северо-западный.
Видимость - горизонтальная дальность видимости в метрах или километрах. При видимости от 1 до 10 км при отсутствии осадков обычно наблюдается дымка, при ухудшении видимости до 1 км и менее - туман. В сухую погоду видимость может ухудшаться дымом, пылью или мглою.
Явления - указаны атмосферные явления, наблюдавшиеся в срок или в последний час перед сроком; фигурными скобками обозначены явления, наблюдавшиеся между сроками (за 1-3 часа до срока); квадратными скобками обозначены град или гололедные отложения с указанием их диаметра в мм.
Облачность - указаны через наклонную черту общая и нижняя облачность в баллах и высота нижней границы облаков в метрах; квадратными скобками обозначены формы облаков: Ci - перистые, Cs - перисто-слоистые, Cc - перисто-кучевые, Ac - высококучевые, As - высокослоистые, Sc - слоисто-кучевые, Ns - слоисто-дождевые, Cu - кучевые, Cb - кучево-дождевые. Подробнее классификацию облаков см. в Атласе облаков (PDF).
T - Температура воздуха - температура, измеренная на высоте 2 м над землей.
Td - Температура точки росы - температура, при понижении до которой содержащийся в воздухе водяной пар достигнет насыщения.
f - Относительная влажность воздуха - влажноcть воздуха, измеренная на высоте 2 м над землей.
Te - Эффективная температура - температура, которую ощущает одетый по сезону человек в тени. Характеристика душности погоды. При расчете учитывается влияние влажности воздуха и скорости ветра на теплоощущения человека.
Tes - Эффективная температура на солнце - температура, которую ощущает человек, с поправкой на солнечный нагрев. Характеристика знойности погоды. Зависит от высоты солнца над горизонтом, облачности и скорости ветра. Ночью, в пасмурную погоду, а также при ветре 12 м/с и более поправка равна нулю.
P - Атмосферное давление - приведенное к уровню моря атмосферное давление.
Po - Атмосферное давление - измеренное на уровне метеостанции атмосферное давление.
Tmin - Минимальная температура - минимум температуры воздуха на высоте 2 м над землей.
Tmax - Максимальная температура - максимум температуры воздуха на высоте 2 м над землей.
R - Количество осадков - Количество выпавших осадков за период времени, мм. При наведении курсора мыши на число - период времени, за который выпало указанное количество осадков.
R24 - Количество осадков - Количество выпавших осадков за 24 часа, мм.
S - Снежный покров - Высота снежного покрова, см. При наведении курсора мыши на число - состояние снежного покрова и степень покрытия местности в баллах.